Weather History for Ord, NE

Change the Weather History Date:

Tuesday, December 17, 2013

  Actual Average Record
Temperature  
Mean Temperature 32 °F 24 °F  
Max Temperature 47 °F 36 °F 57 °F (1998)
Min Temperature 16 °F 12 °F -5 °F (2008)
Degree Days  
Heating Degree Days 33    
Month to date heating degree days 608  
Since 1 July heating degree days 2088  
Cooling Degree Days 0    
Month to date cooling degree days 0  
Year to date cooling degree days 907  
Moisture  
Dew Point 18 °F    
Average Humidity 60    
Maximum Humidity 92    
Minimum Humidity 28    
Precipitation  
Precipitation 0.00 in 0.01 in 0.30 in (1945)
Month to date precipitation T 0.45  
Year to date precipitation 24.35 24.80  
Sea Level Pressure  
Sea Level Pressure 30.24 in    
Wind  
Wind Speed 6 mph (WNW)    
Max Wind Speed 17 mph    
Max Gust Speed 21 mph    
Visibility 10 miles    
Events      
T = Trace of Precipitation, MM = Missing Value Source: NWS Daily Summary

Daily Weather History Graph

Daily Weather History Graph

Search for Another Location

Airport:

Trip Planner

Search our weather history database for the weather conditions in past years. The results will help you decide how hot, cold, wet, or windy it might be!

Date:

Astronomy

Dec. 17, 2013 Rise Set
Actual Time 7:57 AM CST 5:07 PM CST
Civil Twilight 7:25 AM CST 5:38 PM CST
Nautical Twilight 6:50 AM CST 6:13 PM CST
Astronomical Twilight 6:16 AM CST 6:47 PM CST
Moon 5:49 PM CST (12/17) 7:53 AM CST (12/17)
Length of Visible Light 10h 13m
Length of Day
9h 09m
Full, 100% of the Moon is Illuminated
Dec 17
Full
Dec 25
Last Quarter
Jan 1
New
Jan 7
First Quarter
Jan 15
Full

Hourly Weather History & Observations

Time (CST) Temp. Windchill Dew Point Humidity Pressure Visibility Wind Dir Wind Speed Gust Speed Precip Events Conditions
12:53 AM 19.9 °F - 18.0 °F 92% 30.22 in 10.0 mi Calm Calm - N/A   Mostly Cloudy
1:53 AM 19.9 °F 14.9 °F 17.1 °F 89% 30.20 in 10.0 mi SW 3.5 mph - N/A   Clear
2:53 AM 18.0 °F 8.7 °F 15.1 °F 88% 30.22 in 10.0 mi NNW 6.9 mph - N/A   Overcast
3:53 AM 19.9 °F 14.9 °F 17.1 °F 89% 30.24 in 10.0 mi WNW 3.5 mph - N/A   Clear
4:53 AM 19.9 °F 12.1 °F 18.0 °F 92% 30.26 in 10.0 mi NW 5.8 mph - N/A   Clear
5:53 AM 19.9 °F 10.1 °F 18.0 °F 92% 30.29 in 10.0 mi NNW 8.1 mph - N/A   Clear
6:53 AM 23.0 °F 14.7 °F 19.0 °F 85% 30.32 in 10.0 mi NNW 6.9 mph - N/A   Clear
7:53 AM 25.0 °F 16.3 °F 21.9 °F 88% 30.35 in 10.0 mi NW 8.1 mph - N/A   Clear
8:53 AM 28.0 °F 19.3 °F 23.0 °F 81% 30.38 in 10.0 mi WNW 9.2 mph - N/A   Clear
9:53 AM 34.0 °F 25.0 °F 24.1 °F 67% 30.38 in 10.0 mi NW 12.7 mph - N/A   Clear
10:53 AM 39.0 °F 30.3 °F 19.0 °F 45% 30.38 in 10.0 mi NNW 16.1 mph - N/A   Clear
11:53 AM 42.1 °F 37.1 °F 18.0 °F 38% 30.35 in 10.0 mi North 8.1 mph - N/A   Clear
12:53 PM 42.1 °F 37.1 °F 17.1 °F 37% 30.32 in 10.0 mi NW 8.1 mph - N/A   Clear
1:53 PM 44.1 °F 39.5 °F 16.0 °F 32% 30.29 in 10.0 mi NNW 8.1 mph - N/A   Clear
2:53 PM 46.0 °F 44.8 °F 15.1 °F 29% 30.26 in 10.0 mi Variable 3.5 mph - N/A   Clear
3:53 PM 45.0 °F 41.2 °F 15.1 °F 30% 30.24 in 10.0 mi SW 6.9 mph - N/A   Clear
4:53 PM 41.0 °F 38.0 °F 16.0 °F 36% 30.23 in 10.0 mi South 4.6 mph - N/A   Clear
5:53 PM 30.9 °F 25.2 °F 14.0 °F 50% 30.22 in 10.0 mi SSW 5.8 mph - N/A   Clear
6:53 PM 26.1 °F 20.5 °F 12.9 °F 58% 30.20 in 10.0 mi South 4.6 mph - N/A   Clear
7:53 PM 24.1 °F 18.2 °F 12.9 °F 62% 30.17 in 10.0 mi SSW 4.6 mph - N/A   Clear
8:53 PM 28.0 °F 22.8 °F 18.0 °F 66% 30.14 in 10.0 mi East 4.6 mph - N/A   Clear
9:53 PM 35.1 °F 28.6 °F 21.9 °F 59% 30.08 in 10.0 mi SSE 8.1 mph - N/A   Clear
10:53 PM 33.1 °F 26.9 °F 21.0 °F 61% 30.04 in 10.0 mi SSE 6.9 mph - N/A   Clear
11:53 PM 30.0 °F - 21.0 °F 69% 30.01 in 10.0 mi Calm Calm - N/A   Clear